Time,TemperatureF,DewpointF,PressureIn,WindDirection,WindDirectionDegrees,WindSpeedMPH,WindSpeedGustMPH,Humidity,HourlyPrecipIn,Conditions,Clouds,dailyrainin,SoftwareType,DateUTC
2013-11-16 00:00:00,47.8,42.9,29.79,South,183,0.0,1.0,83,0.00,,---,0.00,VWS V14.01,2013-11-16 06:00:00,
2013-11-16 00:01:00,48.8,44.2,29.78,SE,134,0.0,2.0,84,0.00,,---,0.00,VWS V14.01,2013-11-16 06:01:00,
2013-11-16 00:06:00,48.8,44.2,29.77,South,171,1.0,4.0,84,0.00,,---,0.00,VWS V14.01,2013-11-16 06:06:00,
2013-11-16 00:10:00,47.7,42.8,29.79,South,183,0.0,3.0,83,0.00,,---,0.00,VWS V14.01,2013-11-16 06:10:00,
2013-11-16 00:11:00,49.0,44.7,29.78,South,171,0.0,2.0,85,0.00,,---,0.00,VWS V14.01,2013-11-16 06:11:00,
2013-11-16 00:16:00,49.0,44.7,29.78,SSE,167,0.0,5.0,85,0.00,,---,0.00,VWS V14.01,2013-11-16 06:16:00,
2013-11-16 00:20:00,47.7,43.1,29.79,South,183,0.0,2.0,84,0.00,,---,0.00,VWS V14.01,2013-11-16 06:20:00,
2013-11-16 00:21:00,49.1,44.8,29.78,SSW,205,1.0,5.0,85,0.00,,---,0.00,VWS V14.01,2013-11-16 06:21:00,
2013-11-16 00:26:00,49.3,45.0,29.78,SSE,159,4.0,5.0,85,0.00,,---,0.00,VWS V14.01,2013-11-16 06:26:00,
2013-11-16 00:30:00,47.8,43.2,29.80,South,184,0.0,4.0,84,0.00,,---,0.00,VWS V14.01,2013-11-16 06:30:00,
2013-11-16 00:31:00,49.4,45.1,29.77,SW,230,0.0,1.0,85,0.00,,---,0.00,VWS V14.01,2013-11-16 06:31:00,
2013-11-16 00:36:00,49.6,45.3,29.77,SSE,165,2.0,6.0,85,0.00,,---,0.00,VWS V14.01,2013-11-16 06:36:00,
2013-11-16 00:40:00,48.0,43.4,29.79,South,183,0.0,3.0,84,0.00,,---,0.00,VWS V14.01,2013-11-16 06:40:00,
2013-11-16 00:41:00,49.7,45.4,29.77,South,180,1.0,5.0,85,0.00,,---,0.00,VWS V14.01,2013-11-16 06:41:00,
2013-11-16 00:46:00,49.9,45.6,29.77,SE,125,2.0,5.0,85,0.00,,---,0.00,VWS V14.01,2013-11-16 06:46:00,
2013-11-16 00:50:00,48.3,44.0,29.79,NE,51,2.0,4.0,85,0.00,,---,0.00,VWS V14.01,2013-11-16 06:50:00,
2013-11-16 00:51:00,50.0,45.7,29.77,NNW,338,0.0,5.0,85,0.00,,---,0.00,VWS V14.01,2013-11-16 06:51:00,
2013-11-16 00:56:00,50.0,45.7,29.76,SE,146,4.0,6.0,85,0.00,,---,0.00,VWS V14.01,2013-11-16 06:56:00,
2013-11-16 01:00:00,48.7,44.1,29.78,SE,145,0.0,4.0,84,0.00,,---,0.00,VWS V14.01,2013-11-16 07:00:00,
2013-11-16 01:01:00,50.1,45.8,29.76,South,182,1.0,4.0,85,0.00,,---,0.00,VWS V14.01,2013-11-16 07:01:00,
2013-11-16 01:06:00,50.1,45.8,29.75,South,170,2.0,5.0,85,0.00,,---,0.00,VWS V14.01,2013-11-16 07:06:00,
2013-11-16 01:10:00,48.9,44.3,29.78,South,171,0.0,4.0,84,0.00,,---,0.00,VWS V14.01,2013-11-16 07:10:00,
2013-11-16 01:11:00,50.1,45.8,29.75,South,177,2.0,3.0,85,0.00,,---,0.00,VWS V14.01,2013-11-16 07:11:00,
2013-11-16 01:16:00,50.1,45.8,29.75,South,173,0.0,7.0,85,0.00,,---,0.00,VWS V14.01,2013-11-16 07:16:00,
2013-11-16 01:20:00,49.1,44.8,29.78,SSE,167,1.0,5.0,85,0.00,,---,0.00,VWS V14.01,2013-11-16 07:20:00,
2013-11-16 01:21:00,50.1,46.1,29.75,South,172,2.0,7.0,86,0.00,,---,0.00,VWS V14.01,2013-11-16 07:21:00,
2013-11-16 01:26:00,50.2,46.2,29.75,SE,125,2.0,7.0,86,0.00,,---,0.00,VWS V14.01,2013-11-16 07:26:00,
2013-11-16 01:30:00,49.4,45.1,29.78,SW,230,1.0,6.0,85,0.00,,---,0.00,VWS V14.01,2013-11-16 07:30:00,
2013-11-16 01:31:00,50.3,46.0,29.75,South,180,1.0,5.0,85,0.00,,---,0.00,VWS V14.01,2013-11-16 07:31:00,
2013-11-16 01:36:00,50.3,46.3,29.75,South,189,1.0,5.0,86,0.00,,---,0.00,VWS V14.01,2013-11-16 07:36:00,
2013-11-16 01:40:00,49.7,45.4,29.77,SSE,154,1.0,7.0,85,0.00,,---,0.00,VWS V14.01,2013-11-16 07:40:00,
2013-11-16 01:41:00,50.3,46.3,29.75,South,189,4.0,7.0,86,0.00,,---,0.00,VWS V14.01,2013-11-16 07:41:00,
2013-11-16 01:46:00,50.4,46.4,29.74,South,183,2.0,8.0,86,0.00,,---,0.00,VWS V14.01,2013-11-16 07:46:00,
2013-11-16 01:50:00,50.0,45.7,29.77,NNW,342,1.0,6.0,85,0.00,,---,0.00,VWS V14.01,2013-11-16 07:50:00,
2013-11-16 01:51:00,50.4,46.1,29.74,SSW,192,2.0,4.0,85,0.00,,---,0.00,VWS V14.01,2013-11-16 07:51:00,
2013-11-16 01:56:00,50.3,46.3,29.73,SSW,197,1.0,4.0,86,0.00,,---,0.00,VWS V14.01,2013-11-16 07:56:00,
2013-11-16 02:00:00,50.1,45.8,29.76,SSW,203,0.0,6.0,85,0.00,,---,0.00,VWS V14.01,2013-11-16 08:00:00,
2013-11-16 02:01:00,50.3,46.3,29.74,South,188,2.0,4.0,86,0.00,,---,0.00,VWS V14.01,2013-11-16 08:01:00,
2013-11-16 02:06:00,50.3,46.3,29.73,SSE,151,1.0,5.0,86,0.00,,---,0.00,VWS V14.01,2013-11-16 08:06:00,
2013-11-16 02:10:00,50.1,45.8,29.75,SE,144,0.0,5.0,85,0.00,,---,0.00,VWS V14.01,2013-11-16 08:10:00,
2013-11-16 02:11:00,50.3,46.3,29.73,South,180,1.0,5.0,86,0.00,,---,0.00,VWS V14.01,2013-11-16 08:11:00,
2013-11-16 02:16:00,50.3,46.3,29.73,South,181,1.0,5.0,86,0.00,,---,0.00,VWS V14.01,2013-11-16 08:16:00,
2013-11-16 02:20:00,50.1,46.1,29.75,SSE,159,1.0,7.0,86,0.00,,---,0.00,VWS V14.01,2013-11-16 08:20:00,
2013-11-16 02:21:00,50.3,46.6,29.72,WSW,248,1.0,3.0,87,0.00,,---,0.00,VWS V14.01,2013-11-16 08:21:00,
2013-11-16 02:26:00,50.4,46.7,29.72,South,182,0.0,4.0,87,0.00,,---,0.00,VWS V14.01,2013-11-16 08:26:00,
2013-11-16 02:30:00,50.2,46.2,29.75,SE,143,2.0,7.0,86,0.00,,---,0.00,VWS V14.01,2013-11-16 08:30:00,
2013-11-16 02:31:00,50.4,46.7,29.72,SSE,150,0.0,2.0,87,0.00,,---,0.00,VWS V14.01,2013-11-16 08:31:00,
2013-11-16 02:36:00,50.4,46.7,29.72,SE,132,1.0,4.0,87,0.00,,---,0.00,VWS V14.01,2013-11-16 08:36:00,
2013-11-16 02:40:00,50.4,46.4,29.75,South,174,1.0,5.0,86,0.00,,---,0.00,VWS V14.01,2013-11-16 08:40:00,
2013-11-16 02:41:00,50.5,46.8,29.71,South,183,2.0,3.0,87,0.00,,---,0.00,VWS V14.01,2013-11-16 08:41:00,
2013-11-16 02:46:00,50.5,46.8,29.71,South,182,1.0,4.0,87,0.00,,---,0.00,VWS V14.01,2013-11-16 08:46:00,
2013-11-16 02:50:00,50.4,46.1,29.74,South,178,0.0,8.0,85,0.00,,---,0.00,VWS V14.01,2013-11-16 08:50:00,
2013-11-16 02:51:00,50.6,46.9,29.71,South,191,1.0,2.0,87,0.00,,---,0.00,VWS V14.01,2013-11-16 08:51:00,
2013-11-16 02:56:00,50.7,47.0,29.71,SSE,165,1.0,4.0,87,0.00,,---,0.00,VWS V14.01,2013-11-16 08:56:00,
2013-11-16 03:00:00,50.3,46.3,29.73,South,187,3.0,4.0,86,0.00,,---,0.00,VWS V14.01,2013-11-16 09:00:00,
2013-11-16 03:01:00,50.8,47.4,29.70,South,178,2.0,7.0,88,0.00,,---,0.00,VWS V14.01,2013-11-16 09:01:00,
2013-11-16 03:06:00,50.9,47.5,29.69,SSW,205,1.0,7.0,88,0.00,,---,0.00,VWS V14.01,2013-11-16 09:06:00,
2013-11-16 03:10:00,50.3,46.3,29.73,South,185,1.0,5.0,86,0.00,,---,0.00,VWS V14.01,2013-11-16 09:10:00,
2013-11-16 03:11:00,51.1,47.7,29.69,South,180,1.0,4.0,88,0.00,,---,0.00,VWS V14.01,2013-11-16 09:11:00,
2013-11-16 03:16:00,51.2,47.8,29.69,SE,125,1.0,6.0,88,0.00,,---,0.00,VWS V14.01,2013-11-16 09:16:00,
2013-11-16 03:20:00,50.3,46.6,29.72,South,181,2.0,7.0,87,0.00,,---,0.00,VWS V14.01,2013-11-16 09:20:00,
2013-11-16 03:21:00,51.4,48.0,29.68,SSE,157,0.0,4.0,88,0.00,,---,0.00,VWS V14.01,2013-11-16 09:21:00,
2013-11-16 03:26:00,51.6,48.2,29.68,WSW,243,2.0,6.0,88,0.00,,---,0.00,VWS V14.01,2013-11-16 09:26:00,
2013-11-16 03:30:00,50.4,46.7,29.72,South,184,2.0,4.0,87,0.00,,---,0.00,VWS V14.01,2013-11-16 09:30:00,
2013-11-16 03:31:00,51.8,48.4,29.68,SSW,206,2.0,4.0,88,0.00,,---,0.00,VWS V14.01,2013-11-16 09:31:00,
2013-11-16 03:36:00,52.0,48.3,29.68,South,182,1.0,7.0,87,0.00,,---,0.00,VWS V14.01,2013-11-16 09:36:00,
2013-11-16 03:40:00,50.5,46.8,29.72,SSW,194,0.0,4.0,87,0.00,,---,0.00,VWS V14.01,2013-11-16 09:40:00,
2013-11-16 03:41:00,52.2,48.5,29.68,SSE,156,4.0,10.0,87,0.00,,---,0.00,VWS V14.01,2013-11-16 09:41:00,
2013-11-16 03:46:00,52.3,48.5,29.67,South,170,1.0,10.0,87,0.00,,---,0.00,VWS V14.01,2013-11-16 09:46:00,
2013-11-16 03:50:00,50.6,46.9,29.71,South,191,2.0,4.0,87,0.00,,---,0.00,VWS V14.01,2013-11-16 09:50:00,
2013-11-16 03:51:00,52.4,48.7,29.67,South,184,3.0,10.0,87,0.00,,---,0.00,VWS V14.01,2013-11-16 09:51:00,
2013-11-16 03:56:00,52.6,48.8,29.66,South,172,0.0,10.0,87,0.00,,---,0.00,VWS V14.01,2013-11-16 09:56:00,
2013-11-16 04:00:00,50.8,47.4,29.70,South,175,1.0,5.0,88,0.00,,---,0.00,VWS V14.01,2013-11-16 10:00:00,
2013-11-16 04:01:00,52.8,49.0,29.66,South,175,5.0,6.0,87,0.00,,---,0.00,VWS V14.01,2013-11-16 10:01:00,
2013-11-16 04:06:00,53.0,49.2,29.67,SE,133,2.0,7.0,87,0.00,,---,0.00,VWS V14.01,2013-11-16 10:06:00,
2013-11-16 04:10:00,51.0,47.6,29.69,East,97,1.0,7.0,88,0.00,,---,0.00,VWS V14.01,2013-11-16 10:10:00,
2013-11-16 04:11:00,53.1,49.3,29.66,SSE,163,6.0,7.0,87,0.00,,---,0.00,VWS V14.01,2013-11-16 10:11:00,
2013-11-16 04:16:00,53.3,49.5,29.66,SW,222,1.0,7.0,87,0.00,,---,0.00,VWS V14.01,2013-11-16 10:16:00,
2013-11-16 04:20:00,51.3,47.9,29.68,SSE,157,2.0,6.0,88,0.00,,---,0.00,VWS V14.01,2013-11-16 10:20:00,
2013-11-16 04:21:00,53.5,49.7,29.66,SSW,211,3.0,4.0,87,0.00,,---,0.00,VWS V14.01,2013-11-16 10:21:00,
2013-11-16 04:26:00,53.6,49.8,29.66,SSW,213,1.0,4.0,87,0.00,,---,0.00,VWS V14.01,2013-11-16 10:26:00,
2013-11-16 04:30:00,51.7,48.3,29.67,South,190,2.0,7.0,88,0.00,,---,0.00,VWS V14.01,2013-11-16 10:30:00,
2013-11-16 04:31:00,53.8,50.0,29.65,South,177,2.0,7.0,87,0.00,,---,0.00,VWS V14.01,2013-11-16 10:31:00,
2013-11-16 04:36:00,53.9,50.1,29.65,South,188,0.0,7.0,87,0.00,,---,0.00,VWS V14.01,2013-11-16 10:36:00,
2013-11-16 04:40:00,52.1,48.4,29.67,WSW,248,5.0,7.0,87,0.00,,---,0.00,VWS V14.01,2013-11-16 10:40:00,
2013-11-16 04:41:00,54.1,50.3,29.65,SSW,199,0.0,7.0,87,0.00,,---,0.00,VWS V14.01,2013-11-16 10:41:00,
2013-11-16 04:46:00,54.2,50.4,29.64,South,175,1.0,7.0,87,0.00,,---,0.00,VWS V14.01,2013-11-16 10:46:00,
2013-11-16 04:50:00,52.4,48.7,29.67,South,171,1.0,10.0,87,0.00,,---,0.00,VWS V14.01,2013-11-16 10:50:00,
2013-11-16 04:51:00,54.3,50.8,29.64,SSE,162,1.0,2.0,88,0.00,,---,0.00,VWS V14.01,2013-11-16 10:51:00,
2013-11-16 04:56:00,54.5,50.7,29.64,SSE,165,1.0,5.0,87,0.00,,---,0.00,VWS V14.01,2013-11-16 10:56:00,
2013-11-16 05:00:00,52.7,49.0,29.66,South,186,2.0,10.0,87,0.00,,---,0.00,VWS V14.01,2013-11-16 11:00:00,
2013-11-16 05:01:00,54.6,50.8,29.64,East,82,2.0,8.0,87,0.00,,---,0.00,VWS V14.01,2013-11-16 11:01:00,
2013-11-16 05:06:00,54.8,51.3,29.64,West,270,1.0,8.0,88,0.00,,---,0.00,VWS V14.01,2013-11-16 11:06:00,
2013-11-16 05:10:00,53.1,49.3,29.66,ESE,122,2.0,7.0,87,0.00,,---,0.00,VWS V14.01,2013-11-16 11:10:00,
2013-11-16 05:11:00,55.0,51.5,29.64,SW,229,0.0,3.0,88,0.00,,---,0.00,VWS V14.01,2013-11-16 11:11:00,
2013-11-16 05:16:00,55.3,51.5,29.63,SSE,161,1.0,6.0,87,0.00,,---,0.00,VWS V14.01,2013-11-16 11:16:00,
2013-11-16 05:20:00,53.4,49.6,29.66,South,190,2.0,7.0,87,0.00,,---,0.00,VWS V14.01,2013-11-16 11:20:00,
2013-11-16 05:21:00,55.4,51.9,29.64,SW,225,1.0,7.0,88,0.00,,---,0.00,VWS V14.01,2013-11-16 11:21:00,
2013-11-16 05:26:00,55.6,52.1,29.63,WSW,237,2.0,7.0,88,0.00,,---,0.00,VWS V14.01,2013-11-16 11:26:00,
2013-11-16 05:30:00,53.7,49.9,29.66,SSE,153,1.0,4.0,87,0.00,,---,0.00,VWS V14.01,2013-11-16 11:30:00,
2013-11-16 05:31:00,55.8,52.3,29.62,SSE,164,2.0,5.0,88,0.00,,---,0.00,VWS V14.01,2013-11-16 11:31:00,
2013-11-16 05:36:00,55.9,52.1,29.62,South,188,2.0,11.0,87,0.00,,---,0.00,VWS V14.01,2013-11-16 11:36:00,
2013-11-16 05:40:00,54.0,50.2,29.65,South,171,1.0,7.0,87,0.00,,---,0.00,VWS V14.01,2013-11-16 11:40:00,
2013-11-16 05:41:00,56.1,52.3,29.62,SW,227,2.0,3.0,87,0.00,,---,0.00,VWS V14.01,2013-11-16 11:41:00,
2013-11-16 05:46:00,56.3,52.5,29.61,South,188,2.0,7.0,87,0.00,,---,0.00,VWS V14.01,2013-11-16 11:46:00,
2013-11-16 05:50:00,54.3,50.8,29.64,SSE,162,0.0,7.0,88,0.00,,---,0.00,VWS V14.01,2013-11-16 11:50:00,
2013-11-16 05:51:00,56.4,52.6,29.61,South,184,1.0,5.0,87,0.00,,---,0.00,VWS V14.01,2013-11-16 11:51:00,
2013-11-16 05:56:00,56.5,52.7,29.61,SSE,163,1.0,11.0,87,0.00,,---,0.00,VWS V14.01,2013-11-16 11:56:00,
2013-11-16 06:00:00,54.5,50.7,29.64,SE,141,4.0,5.0,87,0.00,,---,0.00,VWS V14.01,2013-11-16 12:00:00,
2013-11-16 06:01:00,56.6,52.8,29.60,SW,223,1.0,3.0,87,0.00,,---,0.00,VWS V14.01,2013-11-16 12:01:00,
2013-11-16 06:06:00,56.8,53.0,29.60,South,182,5.0,7.0,87,0.00,,---,0.00,VWS V14.01,2013-11-16 12:06:00,
2013-11-16 06:10:00,55.0,51.5,29.64,SSE,162,2.0,10.0,88,0.00,,---,0.00,VWS V14.01,2013-11-16 12:10:00,
2013-11-16 06:11:00,57.0,53.2,29.60,South,191,2.0,8.0,87,0.00,,---,0.00,VWS V14.01,2013-11-16 12:11:00,
2013-11-16 06:16:00,57.1,53.3,29.60,SW,224,5.0,8.0,87,0.00,,---,0.00,VWS V14.01,2013-11-16 12:16:00,
2013-11-16 06:20:00,55.3,51.5,29.64,SSW,194,4.0,6.0,87,0.00,,---,0.00,VWS V14.01,2013-11-16 12:20:00,
2013-11-16 06:21:00,57.3,53.5,29.60,South,180,2.0,4.0,87,0.00,,---,0.00,VWS V14.01,2013-11-16 12:21:00,
2013-11-16 06:26:00,57.4,53.6,29.59,South,172,2.0,11.0,87,0.00,,---,0.00,VWS V14.01,2013-11-16 12:26:00,
2013-11-16 06:30:00,55.8,52.0,29.63,ESE,114,1.0,7.0,87,0.00,,---,0.00,VWS V14.01,2013-11-16 12:30:00,
2013-11-16 06:31:00,57.5,53.7,29.59,SE,134,1.0,6.0,87,0.00,,---,0.00,VWS V14.01,2013-11-16 12:31:00,
2013-11-16 06:36:00,57.5,53.7,29.59,SE,134,2.0,7.0,87,0.00,,---,0.00,VWS V14.01,2013-11-16 12:36:00,
2013-11-16 06:40:00,56.1,52.3,29.62,SSW,204,0.0,11.0,87,0.00,,---,0.00,VWS V14.01,2013-11-16 12:40:00,
2013-11-16 06:41:00,57.7,53.9,29.59,SW,225,2.0,7.0,87,0.00,,---,0.00,VWS V14.01,2013-11-16 12:41:00,
2013-11-16 06:46:00,57.8,54.0,29.59,SW,217,2.0,7.0,87,0.00,,---,0.00,VWS V14.01,2013-11-16 12:46:00,
2013-11-16 06:50:00,56.4,52.6,29.61,SSW,212,2.0,7.0,87,0.00,,---,0.00,VWS V14.01,2013-11-16 12:50:00,
2013-11-16 06:51:00,57.9,54.1,29.58,SSE,153,4.0,7.0,87,0.00,,---,0.00,VWS V14.01,2013-11-16 12:51:00,
2013-11-16 06:56:00,58.0,53.8,29.58,SSW,211,6.0,8.0,86,0.00,,---,0.00,VWS V14.01,2013-11-16 12:56:00,
2013-11-16 07:00:00,56.6,52.8,29.60,SW,224,2.0,12.0,87,0.00,,---,0.00,VWS V14.01,2013-11-16 13:00:00,
2013-11-16 07:01:00,58.1,53.9,29.58,SE,133,1.0,4.0,86,0.00,,---,0.00,VWS V14.01,2013-11-16 13:01:00,
2013-11-16 07:05:00,58.3,54.1,29.58,SW,225,2.0,6.0,86,0.00,,---,0.00,VWS V14.01,2013-11-16 13:05:00,
2013-11-16 07:10:00,56.9,53.1,29.60,SSW,208,5.0,8.0,87,0.00,,---,0.00,VWS V14.01,2013-11-16 13:10:00,
2013-11-16 07:11:00,58.4,54.2,29.57,SW,217,2.0,3.0,86,0.00,,---,0.00,VWS V14.01,2013-11-16 13:11:00,
2013-11-16 07:15:00,58.4,54.2,29.57,ESE,112,2.0,8.0,86,0.00,,---,0.00,VWS V14.01,2013-11-16 13:15:00,
2013-11-16 07:20:00,57.2,53.4,29.60,South,188,4.0,10.0,87,0.00,,---,0.00,VWS V14.01,2013-11-16 13:20:00,
2013-11-16 07:21:00,58.5,54.3,29.56,SSE,163,1.0,3.0,86,0.00,,---,0.00,VWS V14.01,2013-11-16 13:21:00,
2013-11-16 07:25:00,58.6,54.4,29.56,South,182,3.0,20.0,86,0.00,,---,0.00,VWS V14.01,2013-11-16 13:25:00,
2013-11-16 07:30:00,58.6,54.4,29.56,SSE,159,1.0,8.0,86,0.00,,---,0.00,VWS V14.01,2013-11-16 13:30:00,
2013-11-16 07:35:00,58.7,54.5,29.56,South,185,2.0,8.0,86,0.00,,---,0.00,VWS V14.01,2013-11-16 13:35:00,
2013-11-16 07:40:00,58.7,54.5,29.56,SE,124,2.0,5.0,86,0.00,,---,0.00,VWS V14.01,2013-11-16 13:40:00,
2013-11-16 07:45:00,58.8,54.6,29.56,East,100,1.0,6.0,86,0.00,,---,0.00,VWS V14.01,2013-11-16 13:45:00,
2013-11-16 07:50:00,58.9,54.7,29.56,SSE,156,1.0,5.0,86,0.00,,---,0.00,VWS V14.01,2013-11-16 13:50:00,
2013-11-16 07:55:00,59.0,54.8,29.56,SSW,196,3.0,6.0,86,0.00,,---,0.00,VWS V14.01,2013-11-16 13:55:00,
2013-11-16 08:00:00,59.1,54.9,29.57,SW,219,2.0,4.0,86,0.00,,---,0.00,VWS V14.01,2013-11-16 14:00:00,
2013-11-16 08:05:00,59.3,55.1,29.57,SSW,209,1.0,10.0,86,0.00,,---,0.00,VWS V14.01,2013-11-16 14:05:00,
2013-11-16 08:10:00,59.4,54.9,29.57,West,273,2.0,4.0,85,0.00,,---,0.00,VWS V14.01,2013-11-16 14:10:00,
2013-11-16 08:15:00,59.6,55.1,29.57,ESE,111,1.0,8.0,85,0.00,,---,0.00,VWS V14.01,2013-11-16 14:15:00,
2013-11-16 08:20:00,59.8,55.3,29.57,ENE,74,2.0,8.0,85,0.00,,---,0.00,VWS V14.01,2013-11-16 14:20:00,
2013-11-16 08:25:00,60.0,55.5,29.57,WSW,241,1.0,8.0,85,0.00,,---,0.00,VWS V14.01,2013-11-16 14:25:00,
2013-11-16 08:30:00,60.2,55.3,29.56,South,177,1.0,4.0,84,0.00,,---,0.00,VWS V14.01,2013-11-16 14:30:00,
2013-11-16 08:35:00,60.3,55.5,29.56,SW,229,0.0,7.0,84,0.00,,---,0.00,VWS V14.01,2013-11-16 14:35:00,
2013-11-16 08:40:00,60.4,55.5,29.56,SSW,205,1.0,4.0,84,0.00,,---,0.00,VWS V14.01,2013-11-16 14:40:00,
2013-11-16 08:45:00,60.5,55.3,29.55,SW,230,2.0,9.0,83,0.00,,---,0.00,VWS V14.01,2013-11-16 14:45:00,
2013-11-16 08:50:00,60.7,55.5,29.55,SE,146,2.0,8.0,83,0.00,,---,0.00,VWS V14.01,2013-11-16 14:50:00,
2013-11-16 08:55:00,60.8,55.6,29.55,SSE,167,1.0,9.0,83,0.00,,---,0.00,VWS V14.01,2013-11-16 14:55:00,
2013-11-16 09:00:00,60.9,55.7,29.55,East,101,1.0,6.0,83,0.00,,---,0.00,VWS V14.01,2013-11-16 15:00:00,
2013-11-16 09:05:00,61.0,55.5,29.54,SSW,196,2.0,13.0,82,0.00,,---,0.00,VWS V14.01,2013-11-16 15:05:00,
2013-11-16 09:10:00,61.2,56.0,29.55,South,172,1.0,9.0,83,0.00,,---,0.00,VWS V14.01,2013-11-16 15:10:00,
2013-11-16 09:15:00,61.4,55.9,29.54,SW,229,6.0,11.0,82,0.00,,---,0.00,VWS V14.01,2013-11-16 15:15:00,
2013-11-16 09:20:00,61.8,56.2,29.54,South,175,4.0,7.0,82,0.00,,---,0.00,VWS V14.01,2013-11-16 15:20:00,
2013-11-16 09:25:00,62.2,56.3,29.55,South,190,4.0,7.0,81,0.00,,---,0.00,VWS V14.01,2013-11-16 15:25:00,
2013-11-16 09:30:00,62.6,56.3,29.54,South,188,3.0,5.0,80,0.00,,---,0.00,VWS V14.01,2013-11-16 15:30:00,
2013-11-16 09:35:00,62.9,56.6,29.55,SSE,148,1.0,11.0,80,0.00,,---,0.00,VWS V14.01,2013-11-16 15:35:00,
2013-11-16 09:40:00,63.1,56.8,29.54,SSW,193,7.0,10.0,80,0.00,,---,0.00,VWS V14.01,2013-11-16 15:40:00,
2013-11-16 09:45:00,63.4,56.8,29.54,South,188,2.0,14.0,79,0.00,,---,0.00,VWS V14.01,2013-11-16 15:45:00,
2013-11-16 09:50:00,63.7,57.1,29.54,SSW,199,2.0,6.0,79,0.00,,---,0.00,VWS V14.01,2013-11-16 15:50:00,
2013-11-16 09:55:00,64.0,57.0,29.55,SSE,160,9.0,20.0,78,0.00,,---,0.00,VWS V14.01,2013-11-16 15:55:00,
2013-11-16 10:00:00,64.2,57.2,29.54,WSW,241,6.0,16.0,78,0.00,,---,0.00,VWS V14.01,2013-11-16 16:00:00,
2013-11-16 10:05:00,64.5,57.1,29.55,SSE,168,1.0,16.0,77,0.00,,---,0.00,VWS V14.01,2013-11-16 16:05:00,
2013-11-16 10:10:00,64.8,57.1,29.54,SW,216,10.0,17.0,76,0.00,,---,0.00,VWS V14.01,2013-11-16 16:10:00,
2013-11-16 10:15:00,65.0,57.3,29.54,SSE,155,7.0,17.0,76,0.00,,---,0.00,VWS V14.01,2013-11-16 16:15:00,
2013-11-16 10:20:00,65.2,57.5,29.54,South,178,6.0,7.0,76,0.00,,---,0.00,VWS V14.01,2013-11-16 16:20:00,
2013-11-16 10:25:00,65.5,57.7,29.54,SSE,167,7.0,9.0,76,0.00,,---,0.00,VWS V14.01,2013-11-16 16:25:00,
2013-11-16 10:30:00,65.9,57.8,29.53,SSE,163,6.0,8.0,75,0.00,,---,0.00,VWS V14.01,2013-11-16 16:30:00,
2013-11-16 10:35:00,66.1,57.6,29.54,SW,224,2.0,13.0,74,0.00,,---,0.00,VWS V14.01,2013-11-16 16:35:00,
2013-11-16 10:40:00,66.2,57.7,29.53,SE,135,4.0,12.0,74,0.00,,---,0.00,VWS V14.01,2013-11-16 16:40:00,
2013-11-16 10:45:00,66.4,57.5,29.53,SE,125,5.0,12.0,73,0.00,,---,0.00,VWS V14.01,2013-11-16 16:45:00,
2013-11-16 10:50:00,66.6,57.7,29.52,WSW,252,4.0,7.0,73,0.00,,---,0.00,VWS V14.01,2013-11-16 16:50:00,
2013-11-16 10:55:00,66.9,58.0,29.54,SW,227,4.0,17.0,73,0.00,,---,0.00,VWS V14.01,2013-11-16 16:55:00,
2013-11-16 11:00:00,67.0,57.7,29.53,ENE,59,6.0,11.0,72,0.00,,---,0.00,VWS V14.01,2013-11-16 17:00:00,
2013-11-16 11:06:00,67.0,57.7,29.53,South,175,4.0,23.0,72,0.00,,---,0.00,VWS V14.01,2013-11-16 17:06:00,
2013-11-16 11:10:00,64.8,57.4,29.54,SSW,212,7.0,16.0,77,0.00,,---,0.00,VWS V14.01,2013-11-16 17:10:00,
2013-11-16 11:11:00,66.9,57.6,29.53,SSW,204,3.0,8.0,72,0.00,,---,0.00,VWS V14.01,2013-11-16 17:11:00,
2013-11-16 11:16:00,66.8,57.5,29.52,SSW,198,5.0,13.0,72,0.00,,---,0.00,VWS V14.01,2013-11-16 17:16:00,
2013-11-16 11:20:00,65.1,57.4,29.54,South,172,1.0,17.0,76,0.00,,---,0.00,VWS V14.01,2013-11-16 17:20:00,
2013-11-16 11:21:00,66.8,57.9,29.52,South,178,1.0,5.0,73,0.00,,---,0.00,VWS V14.01,2013-11-16 17:21:00,
2013-11-16 11:26:00,67.0,57.7,29.52,WSW,245,2.0,13.0,72,0.00,,---,0.00,VWS V14.01,2013-11-16 17:26:00,
2013-11-16 11:30:00,65.8,57.7,29.54,SE,144,2.0,12.0,75,0.00,,---,0.00,VWS V14.01,2013-11-16 17:30:00,
2013-11-16 11:31:00,67.2,57.9,29.51,SSW,203,5.0,6.0,72,0.00,,---,0.00,VWS V14.01,2013-11-16 17:31:00,
2013-11-16 11:36:00,67.4,57.7,29.50,SSE,153,2.0,14.0,71,0.00,,---,0.00,VWS V14.01,2013-11-16 17:36:00,
2013-11-16 11:40:00,66.2,57.7,29.54,South,184,5.0,13.0,74,0.00,,---,0.00,VWS V14.01,2013-11-16 17:40:00,
2013-11-16 11:41:00,67.7,58.0,29.50,SSE,158,0.0,4.0,71,0.00,,---,0.00,VWS V14.01,2013-11-16 17:41:00,
2013-11-16 11:46:00,67.9,57.8,29.50,SSW,196,3.0,15.0,70,0.00,,---,0.00,VWS V14.01,2013-11-16 17:46:00,
2013-11-16 11:50:00,66.6,57.7,29.52,SSW,192,7.0,15.0,73,0.00,,---,0.00,VWS V14.01,2013-11-16 17:50:00,
2013-11-16 11:51:00,68.1,58.0,29.49,SW,217,4.0,11.0,70,0.00,,---,0.00,VWS V14.01,2013-11-16 17:51:00,
2013-11-16 11:56:00,68.3,57.8,29.50,SSE,157,13.0,15.0,69,0.00,,---,0.00,VWS V14.01,2013-11-16 17:56:00,
2013-11-16 12:00:00,67.0,57.7,29.54,SW,218,10.0,20.0,72,0.00,,---,0.00,VWS V14.01,2013-11-16 18:00:00,
2013-11-16 12:01:00,68.4,57.8,29.49,SE,128,5.0,13.0,69,0.00,,---,0.00,VWS V14.01,2013-11-16 18:01:00,
2013-11-16 12:06:00,68.3,58.2,29.49,SSE,166,4.0,14.0,70,0.00,,---,0.00,VWS V14.01,2013-11-16 18:06:00,
2013-11-16 12:10:00,66.9,57.6,29.53,SW,228,6.0,23.0,72,0.00,,---,0.00,VWS V14.01,2013-11-16 18:10:00,
2013-11-16 12:11:00,68.2,57.7,29.49,SSW,197,5.0,17.0,69,0.00,,---,0.00,VWS V14.01,2013-11-16 18:11:00,
2013-11-16 12:16:00,68.2,58.0,29.48,SW,227,7.0,20.0,70,0.00,,---,0.00,VWS V14.01,2013-11-16 18:16:00,
2013-11-16 12:20:00,66.8,57.5,29.52,South,190,4.0,13.0,72,0.00,,---,0.00,VWS V14.01,2013-11-16 18:20:00,
2013-11-16 12:21:00,68.4,57.8,29.48,SSE,161,4.0,7.0,69,0.00,,---,0.00,VWS V14.01,2013-11-16 18:21:00,
2013-11-16 12:26:00,68.5,57.9,29.47,SSW,207,5.0,19.0,69,0.00,,---,0.00,VWS V14.01,2013-11-16 18:26:00,
2013-11-16 12:30:00,67.1,57.8,29.51,SSW,193,2.0,13.0,72,0.00,,---,0.00,VWS V14.01,2013-11-16 18:30:00,
2013-11-16 12:31:00,68.5,57.9,29.47,SSW,201,4.0,13.0,69,0.00,,---,0.00,VWS V14.01,2013-11-16 18:31:00,
2013-11-16 12:36:00,68.5,57.9,29.46,SSE,151,2.0,14.0,69,0.00,,---,0.00,VWS V14.01,2013-11-16 18:36:00,
2013-11-16 12:40:00,67.6,57.9,29.50,SSE,168,0.0,14.0,71,0.00,,---,0.00,VWS V14.01,2013-11-16 18:40:00,
2013-11-16 12:41:00,68.7,58.1,29.45,SSW,209,4.0,12.0,69,0.00,,---,0.00,VWS V14.01,2013-11-16 18:41:00,
2013-11-16 12:46:00,69.0,58.0,29.45,West,277,1.0,12.0,68,0.00,,---,0.00,VWS V14.01,2013-11-16 18:46:00,
2013-11-16 12:50:00,68.0,57.9,29.50,SSW,198,8.0,23.0,70,0.00,,---,0.00,VWS V14.01,2013-11-16 18:50:00,
2013-11-16 12:51:00,69.4,58.4,29.45,South,187,8.0,8.0,68,0.00,,---,0.00,VWS V14.01,2013-11-16 18:51:00,
2013-11-16 12:56:00,69.9,58.5,29.45,WSW,248,6.0,13.0,67,0.00,,---,0.00,VWS V14.01,2013-11-16 18:56:00,
2013-11-16 13:00:00,68.4,57.8,29.49,SE,136,5.0,15.0,69,0.00,,---,0.00,VWS V14.01,2013-11-16 19:00:00,
2013-11-16 13:01:00,70.2,58.3,29.45,South,180,0.0,12.0,66,0.00,,---,0.00,VWS V14.01,2013-11-16 19:01:00,
2013-11-16 13:06:00,70.3,58.0,29.45,SSW,195,4.0,12.0,65,0.00,,---,0.00,VWS V14.01,2013-11-16 19:06:00,
2013-11-16 13:10:00,68.3,58.2,29.49,SW,234,7.0,14.0,70,0.00,,---,0.00,VWS V14.01,2013-11-16 19:10:00,
2013-11-16 13:11:00,70.2,57.9,29.45,South,189,5.0,13.0,65,0.00,,---,0.00,VWS V14.01,2013-11-16 19:11:00,
2013-11-16 13:16:00,70.1,57.8,29.45,SW,233,4.0,13.0,65,0.00,,---,0.00,VWS V14.01,2013-11-16 19:16:00,
2013-11-16 13:20:00,68.4,57.8,29.48,SSW,206,4.0,20.0,69,0.00,,---,0.00,VWS V14.01,2013-11-16 19:20:00,
2013-11-16 13:21:00,70.1,58.2,29.45,SW,235,5.0,5.0,66,0.00,,---,0.00,VWS V14.01,2013-11-16 19:21:00,
2013-11-16 13:26:00,70.1,57.8,29.45,SW,216,1.0,6.0,65,0.00,,---,0.00,VWS V14.01,2013-11-16 19:26:00,
2013-11-16 13:30:00,70.1,57.8,29.45,SSW,194,1.0,11.0,65,0.00,,---,0.00,VWS V14.01,2013-11-16 19:30:00,
2013-11-16 13:35:00,69.8,57.5,29.45,WSW,248,1.0,17.0,65,0.00,,---,0.00,VWS V14.01,2013-11-16 19:35:00,
2013-11-16 13:40:00,69.7,57.8,29.45,SW,235,8.0,11.0,66,0.00,,---,0.00,VWS V14.01,2013-11-16 19:40:00,
2013-11-16 13:45:00,69.6,57.3,29.45,West,261,5.0,13.0,65,0.00,,---,0.00,VWS V14.01,2013-11-16 19:45:00,
2013-11-16 13:50:00,69.7,57.8,29.45,South,187,0.0,6.0,66,0.00,,---,0.00,VWS V14.01,2013-11-16 19:50:00,
2013-11-16 13:55:00,69.8,57.9,29.44,SW,221,0.0,11.0,66,0.00,,---,0.00,VWS V14.01,2013-11-16 19:55:00,
2013-11-16 14:00:00,70.1,57.8,29.44,SW,219,5.0,8.0,65,0.00,,---,0.00,VWS V14.01,2013-11-16 20:00:00,
2013-11-16 14:05:00,70.3,58.0,29.44,SE,140,4.0,14.0,65,0.00,,---,0.00,VWS V14.01,2013-11-16 20:05:00,
2013-11-16 14:10:00,70.6,57.8,29.44,WSW,238,2.0,6.0,64,0.00,,---,0.00,VWS V14.01,2013-11-16 20:10:00,
2013-11-16 14:15:00,71.0,57.8,29.44,SE,142,5.0,8.0,63,0.00,,---,0.00,VWS V14.01,2013-11-16 20:15:00,
2013-11-16 14:20:00,71.2,57.5,29.43,SW,228,5.0,9.0,62,0.00,,---,0.00,VWS V14.01,2013-11-16 20:20:00,
2013-11-16 14:25:00,71.4,57.7,29.43,South,188,1.0,11.0,62,0.00,,---,0.00,VWS V14.01,2013-11-16 20:25:00,
2013-11-16 14:30:00,71.6,57.5,29.44,SSW,213,2.0,7.0,61,0.00,,---,0.00,VWS V14.01,2013-11-16 20:30:00,
2013-11-16 14:35:00,71.6,57.5,29.43,South,181,4.0,17.0,61,0.00,,---,0.00,VWS V14.01,2013-11-16 20:35:00,
2013-11-16 14:40:00,71.6,57.5,29.44,SW,224,3.0,4.0,61,0.00,,---,0.00,VWS V14.01,2013-11-16 20:40:00,
2013-11-16 14:45:00,71.5,57.4,29.44,SSW,208,0.0,14.0,61,0.00,,---,0.00,VWS V14.01,2013-11-16 20:45:00,
2013-11-16 14:50:00,71.4,57.3,29.44,SSW,200,4.0,13.0,61,0.00,,---,0.00,VWS V14.01,2013-11-16 20:50:00,
2013-11-16 14:55:00,71.3,57.2,29.44,SW,227,7.0,13.0,61,0.00,,---,0.00,VWS V14.01,2013-11-16 20:55:00,
2013-11-16 15:00:00,71.2,57.1,29.44,SW,220,0.0,3.0,61,0.00,,---,0.00,VWS V14.01,2013-11-16 21:00:00,
2013-11-16 15:05:00,71.1,57.4,29.44,SW,234,4.0,10.0,62,0.00,,---,0.00,VWS V14.01,2013-11-16 21:05:00,
2013-11-16 15:10:00,71.2,58.0,29.44,South,189,1.0,4.0,63,0.00,,---,0.00,VWS V14.01,2013-11-16 21:10:00,
2013-11-16 15:15:00,71.2,58.0,29.44,SW,230,8.0,8.0,63,0.00,,---,0.00,VWS V14.01,2013-11-16 21:15:00,
2013-11-16 15:20:00,71.1,57.9,29.44,South,171,8.0,10.0,63,0.00,,---,0.00,VWS V14.01,2013-11-16 21:20:00,
2013-11-16 15:25:00,71.0,58.2,29.44,SSE,163,1.0,12.0,64,0.00,,---,0.00,VWS V14.01,2013-11-16 21:25:00,
2013-11-16 15:30:00,70.9,58.1,29.44,WSW,239,10.0,13.0,64,0.00,,---,0.00,VWS V14.01,2013-11-16 21:30:00,
2013-11-16 15:35:00,70.7,57.9,29.44,SW,224,1.0,13.0,64,0.00,,---,0.00,VWS V14.01,2013-11-16 21:35:00,
2013-11-16 15:40:00,70.5,58.2,29.44,SW,236,2.0,9.0,65,0.00,,---,0.00,VWS V14.01,2013-11-16 21:40:00,
2013-11-16 15:45:00,70.4,58.1,29.45,SW,230,3.0,9.0,65,0.00,,---,0.00,VWS V14.01,2013-11-16 21:45:00,
2013-11-16 15:50:00,70.4,58.1,29.44,SSW,212,5.0,6.0,65,0.00,,---,0.00,VWS V14.01,2013-11-16 21:50:00,
2013-11-16 15:55:00,70.3,58.4,29.45,WSW,237,2.0,7.0,66,0.00,,---,0.00,VWS V14.01,2013-11-16 21:55:00,
2013-11-16 16:00:00,70.2,58.3,29.45,South,188,3.0,6.0,66,0.00,,---,0.00,VWS V14.01,2013-11-16 22:00:00,
2013-11-16 16:05:00,70.0,58.5,29.44,South,186,3.0,6.0,67,0.00,,---,0.00,VWS V14.01,2013-11-16 22:05:00,
2013-11-16 16:10:00,69.8,58.4,29.44,SSW,200,3.0,3.0,67,0.00,,---,0.00,VWS V14.01,2013-11-16 22:10:00,
2013-11-16 16:15:00,69.5,58.1,29.44,SSW,210,1.0,7.0,67,0.00,,---,0.00,VWS V14.01,2013-11-16 22:15:00,
2013-11-16 16:20:00,69.3,58.3,29.45,South,174,4.0,4.0,68,0.00,,---,0.00,VWS V14.01,2013-11-16 22:20:00,
2013-11-16 16:25:00,69.1,58.1,29.46,WSW,242,1.0,5.0,68,0.00,,---,0.00,VWS V14.01,2013-11-16 22:25:00,
2013-11-16 16:30:00,68.9,58.3,29.46,SW,225,2.0,4.0,69,0.00,,---,0.00,VWS V14.01,2013-11-16 22:30:00,
2013-11-16 16:35:00,68.8,58.2,29.46,SSW,199,3.0,7.0,69,0.00,,---,0.00,VWS V14.01,2013-11-16 22:35:00,
2013-11-16 16:40:00,68.6,58.0,29.46,SW,229,0.0,3.0,69,0.00,,---,0.00,VWS V14.01,2013-11-16 22:40:00,
2013-11-16 16:45:00,68.6,58.0,29.46,SW,216,2.0,6.0,69,0.00,,---,0.00,VWS V14.01,2013-11-16 22:45:00,
2013-11-16 16:50:00,68.5,57.9,29.46,WSW,249,2.0,4.0,69,0.00,,---,0.00,VWS V14.01,2013-11-16 22:50:00,
2013-11-16 16:55:00,68.4,58.6,29.47,WSW,249,0.0,5.0,71,0.00,,---,0.00,VWS V14.01,2013-11-16 22:55:00,
2013-11-16 17:00:00,68.3,58.9,29.47,SE,140,2.0,2.0,72,0.00,,---,0.00,VWS V14.01,2013-11-16 23:00:00,
2013-11-16 17:05:00,68.1,58.7,29.47,South,182,1.0,5.0,72,0.00,,---,0.00,VWS V14.01,2013-11-16 23:05:00,
2013-11-16 17:10:00,67.9,58.5,29.47,SSW,197,0.0,2.0,72,0.00,,---,0.00,VWS V14.01,2013-11-16 23:10:00,
2013-11-16 17:15:00,67.6,58.3,29.47,SW,222,1.0,4.0,72,0.00,,---,0.00,VWS V14.01,2013-11-16 23:15:00,
2013-11-16 17:20:00,67.3,58.0,29.47,South,188,1.0,4.0,72,0.00,,---,0.00,VWS V14.01,2013-11-16 23:20:00,
2013-11-16 17:25:00,67.0,58.1,29.47,WSW,250,0.0,4.0,73,0.00,,---,0.00,VWS V14.01,2013-11-16 23:25:00,
2013-11-16 17:30:00,66.8,57.9,29.47,SW,220,0.0,4.0,73,0.00,,---,0.00,VWS V14.01,2013-11-16 23:30:00,
2013-11-16 17:35:00,66.6,57.7,29.47,South,173,1.0,5.0,73,0.00,,---,0.00,VWS V14.01,2013-11-16 23:35:00,
2013-11-16 17:40:00,66.4,57.9,29.47,SSW,203,2.0,5.0,74,0.00,,---,0.00,VWS V14.01,2013-11-16 23:40:00,
2013-11-16 17:45:00,66.3,57.8,29.47,SSW,197,1.0,6.0,74,0.00,,---,0.00,VWS V14.01,2013-11-16 23:45:00,
2013-11-16 17:50:00,66.1,57.6,29.47,SSW,197,0.0,1.0,74,0.00,,---,0.00,VWS V14.01,2013-11-16 23:50:00,
2013-11-16 17:55:00,65.9,57.8,29.46,SW,215,0.0,6.0,75,0.00,,---,0.00,VWS V14.01,2013-11-16 23:55:00,
2013-11-16 18:00:00,65.7,57.6,29.47,SSW,197,0.0,4.0,75,0.00,,---,0.00,VWS V14.01,2013-11-17 00:00:00,
2013-11-16 18:05:00,65.6,57.8,29.47,SE,146,0.0,5.0,76,0.00,,---,0.00,VWS V14.01,2013-11-17 00:05:00,
2013-11-16 18:10:00,65.4,57.7,29.47,South,191,0.0,1.0,76,0.00,,---,0.00,VWS V14.01,2013-11-17 00:10:00,
2013-11-16 18:15:00,65.3,57.5,29.47,SSW,200,0.0,4.0,76,0.00,,---,0.00,VWS V14.01,2013-11-17 00:15:00,
2013-11-16 18:20:00,65.3,58.3,29.47,SSW,205,2.0,4.0,78,0.00,,---,0.00,VWS V14.01,2013-11-17 00:20:00,
2013-11-16 18:25:00,65.2,59.2,29.48,SSW,211,0.0,4.0,81,0.03,,---,0.03,VWS V14.01,2013-11-17 00:25:00,
2013-11-16 18:30:00,65.0,59.4,29.49,SSW,211,0.0,1.0,82,0.08,,---,0.08,VWS V14.01,2013-11-17 00:30:00,
2013-11-16 18:35:00,64.6,59.7,29.47,SSW,205,0.0,2.0,84,0.21,,---,0.21,VWS V14.01,2013-11-17 00:35:00,
2013-11-16 18:40:00,64.1,59.5,29.48,SSW,205,1.0,2.0,85,0.30,,---,0.30,VWS V14.01,2013-11-17 00:40:00,
2013-11-16 18:45:00,63.6,59.3,29.51,South,190,5.0,6.0,86,0.35,,---,0.35,VWS V14.01,2013-11-17 00:45:00,
2013-11-16 18:50:00,62.6,57.4,29.53,South,171,0.0,4.0,83,0.56,,---,0.56,VWS V14.01,2013-11-17 00:50:00,
2013-11-16 18:55:00,61.3,56.8,29.49,East,93,0.0,4.0,85,0.72,,---,0.72,VWS V14.01,2013-11-17 00:55:00,
2013-11-16 19:00:00,60.4,56.5,29.49,East,82,0.0,4.0,87,0.72,,---,0.72,VWS V14.01,2013-11-17 01:00:00,
2013-11-16 19:05:00,59.8,56.2,29.49,East,82,0.0,4.0,88,0.72,,---,0.72,VWS V14.01,2013-11-17 01:05:00,
2013-11-16 19:10:00,59.4,56.2,29.48,East,82,0.0,1.0,89,0.73,,---,0.73,VWS V14.01,2013-11-17 01:10:00,
2013-11-16 19:15:00,59.1,56.2,29.49,South,180,0.0,3.0,90,0.73,,---,0.73,VWS V14.01,2013-11-17 01:15:00,
2013-11-16 19:20:00,58.9,56.0,29.50,South,180,0.0,0.0,90,0.74,,---,0.74,VWS V14.01,2013-11-17 01:20:00,
2013-11-16 19:25:00,58.7,56.1,29.50,South,180,0.0,0.0,91,0.74,,---,0.74,VWS V14.01,2013-11-17 01:25:00,
2013-11-16 19:30:00,58.6,56.0,29.51,South,180,0.0,0.0,91,0.67,,---,0.74,VWS V14.01,2013-11-17 01:30:00,
2013-11-16 19:35:00,58.5,56.2,29.50,South,177,0.0,2.0,92,0.71,,---,0.78,VWS V14.01,2013-11-17 01:35:00,
2013-11-16 19:40:00,58.4,56.1,29.48,ESE,102,0.0,0.0,92,0.58,,---,0.87,VWS V14.01,2013-11-17 01:40:00,
2013-11-16 19:45:00,58.3,56.0,29.50,WNW,291,2.0,5.0,92,0.61,,---,0.90,VWS V14.01,2013-11-17 01:45:00,
2013-11-16 19:50:00,58.2,55.9,29.50,NW,309,1.0,2.0,92,0.59,,---,1.10,VWS V14.01,2013-11-17 01:50:00,
2013-11-16 19:55:00,58.2,56.2,29.50,NW,309,0.0,2.0,93,0.68,,---,1.19,VWS V14.01,2013-11-17 01:55:00,
2013-11-16 20:00:00,58.2,56.2,29.51,NW,309,0.0,1.0,93,0.48,,---,1.20,VWS V14.01,2013-11-17 02:00:00,
2013-11-16 20:05:00,58.3,56.6,29.50,NW,309,0.0,1.0,94,0.49,,---,1.21,VWS V14.01,2013-11-17 02:05:00,
2013-11-16 20:10:00,58.4,56.7,29.49,ESE,112,0.0,0.0,94,0.55,,---,1.28,VWS V14.01,2013-11-17 02:10:00,
2013-11-16 20:15:00,58.4,56.7,29.49,ESE,113,0.0,2.0,94,0.55,,---,1.28,VWS V14.01,2013-11-17 02:15:00,
2013-11-16 20:20:00,58.5,56.8,29.49,ESE,112,0.0,1.0,94,0.55,,---,1.28,VWS V14.01,2013-11-17 02:20:00,
2013-11-16 20:25:00,58.4,56.7,29.49,ESE,113,0.0,2.0,94,0.56,,---,1.29,VWS V14.01,2013-11-17 02:25:00,
2013-11-16 20:30:00,58.6,56.0,29.51,South,180,0.0,1.0,91,0.74,,---,0.74,VWS V14.01,2013-11-17 02:30:00,
2013-11-16 20:31:00,58.5,56.8,29.49,ESE,113,0.0,1.0,94,0.55,,---,1.29,VWS V14.01,2013-11-17 02:31:00,
2013-11-16 20:36:00,58.5,56.8,29.49,ESE,113,0.0,1.0,94,0.55,,---,1.29,VWS V14.01,2013-11-17 02:36:00,
2013-11-16 20:40:00,58.5,56.8,29.49,ESE,113,0.0,0.0,94,0.43,,---,1.29,VWS V14.01,2013-11-17 02:40:00,
2013-11-16 20:45:00,58.6,56.9,29.49,ESE,113,0.0,1.0,94,0.43,,---,1.29,VWS V14.01,2013-11-17 02:45:00,
2013-11-16 20:50:00,58.2,55.9,29.51,NW,304,0.0,5.0,92,0.72,,---,1.01,VWS V14.01,2013-11-17 02:50:00,
2013-11-16 20:51:00,58.6,56.9,29.49,ESE,113,0.0,0.0,94,0.28,,---,1.29,VWS V14.01,2013-11-17 02:51:00,
2013-11-16 20:56:00,58.7,57.3,29.49,SSE,148,0.0,4.0,95,0.28,,---,1.29,VWS V14.01,2013-11-17 02:56:00,
2013-11-16 21:00:00,58.2,56.2,29.50,NW,309,0.0,2.0,93,0.69,,---,1.20,VWS V14.01,2013-11-17 03:00:00,
2013-11-16 21:01:00,58.9,57.5,29.49,SSE,148,0.0,1.0,95,0.09,,---,1.29,VWS V14.01,2013-11-17 03:01:00,
2013-11-16 21:06:00,59.0,57.6,29.49,SSE,148,0.0,2.0,95,0.09,,---,1.29,VWS V14.01,2013-11-17 03:06:00,
2013-11-16 21:10:00,58.4,56.7,29.49,ESE,112,0.0,3.0,94,0.56,,---,1.28,VWS V14.01,2013-11-17 03:10:00,
2013-11-16 21:11:00,59.1,57.7,29.48,SSE,148,0.0,0.0,95,0.01,,---,1.29,VWS V14.01,2013-11-17 03:11:00,
2013-11-16 21:16:00,59.1,57.7,29.48,SSE,148,0.0,0.0,95,0.01,,---,1.29,VWS V14.01,2013-11-17 03:16:00,
2013-11-16 21:20:00,58.4,56.7,29.48,ESE,112,0.0,2.0,94,0.55,,---,1.28,VWS V14.01,2013-11-17 03:20:00,
2013-11-16 21:21:00,59.1,57.4,29.48,SSE,148,0.0,0.0,94,0.01,,---,1.29,VWS V14.01,2013-11-17 03:21:00,
2013-11-16 21:26:00,59.1,57.7,29.48,SSE,148,0.0,0.0,95,0.01,,---,1.29,VWS V14.01,2013-11-17 03:26:00,
2013-11-16 21:30:00,58.5,56.8,29.49,ESE,113,0.0,2.0,94,0.56,,---,1.29,VWS V14.01,2013-11-17 03:30:00,
2013-11-16 21:31:00,59.0,57.6,29.48,SSE,148,0.0,0.0,95,0.00,,---,1.29,VWS V14.01,2013-11-17 03:31:00,
2013-11-16 21:36:00,58.9,57.2,29.48,SSE,148,0.0,0.0,94,0.00,,---,1.29,VWS V14.01,2013-11-17 03:36:00,
2013-11-16 21:40:00,58.5,56.8,29.49,ESE,113,0.0,1.0,94,0.55,,---,1.29,VWS V14.01,2013-11-17 03:40:00,
2013-11-16 21:41:00,58.9,57.5,29.48,SSE,148,0.0,0.0,95,0.00,,---,1.29,VWS V14.01,2013-11-17 03:41:00,
2013-11-16 21:46:00,58.8,57.4,29.47,SSE,148,0.0,0.0,95,0.00,,---,1.29,VWS V14.01,2013-11-17 03:46:00,
2013-11-16 21:50:00,58.6,56.9,29.49,ESE,113,0.0,1.0,94,0.43,,---,1.29,VWS V14.01,2013-11-17 03:50:00,
2013-11-16 21:51:00,58.8,57.1,29.47,SSE,148,0.0,1.0,94,0.00,,---,1.29,VWS V14.01,2013-11-17 03:51:00,
2013-11-16 21:56:00,58.8,57.1,29.47,SSE,148,0.0,1.0,94,0.00,,---,1.29,VWS V14.01,2013-11-17 03:56:00,
2013-11-16 22:00:00,58.8,57.4,29.49,SSE,148,1.0,4.0,95,0.28,,---,1.29,VWS V14.01,2013-11-17 04:00:00,
2013-11-16 22:01:00,58.8,57.4,29.47,SSE,148,0.0,0.0,95,0.00,,---,1.29,VWS V14.01,2013-11-17 04:01:00,
2013-11-16 22:06:00,58.8,57.4,29.46,SSE,148,2.0,2.0,95,0.00,,---,1.29,VWS V14.01,2013-11-17 04:06:00,
2013-11-16 22:10:00,59.1,57.7,29.48,SSE,148,0.0,2.0,95,0.09,,---,1.29,VWS V14.01,2013-11-17 04:10:00,
2013-11-16 22:11:00,58.8,57.4,29.46,SSE,148,0.0,1.0,95,0.00,,---,1.29,VWS V14.01,2013-11-17 04:11:00,
2013-11-16 22:16:00,58.8,57.4,29.46,SSE,148,0.0,1.0,95,0.00,,---,1.29,VWS V14.01,2013-11-17 04:16:00,
2013-11-16 22:20:00,59.1,57.4,29.48,SSE,148,0.0,0.0,94,0.01,,---,1.29,VWS V14.01,2013-11-17 04:20:00,
2013-11-16 22:21:00,58.9,57.5,29.45,SSE,148,0.0,0.0,95,0.00,,---,1.29,VWS V14.01,2013-11-17 04:21:00,
2013-11-16 22:26:00,59.0,57.6,29.45,SSE,148,0.0,1.0,95,0.00,,---,1.29,VWS V14.01,2013-11-17 04:26:00,
2013-11-16 22:30:00,59.0,57.3,29.48,SSE,148,0.0,0.0,94,0.01,,---,1.29,VWS V14.01,2013-11-17 04:30:00,
2013-11-16 22:31:00,59.1,57.7,29.45,SSW,213,0.0,1.0,95,0.00,,---,1.29,VWS V14.01,2013-11-17 04:31:00,
2013-11-16 22:36:00,59.1,57.7,29.45,SSW,213,1.0,2.0,95,0.00,,---,1.29,VWS V14.01,2013-11-17 04:36:00,
2013-11-16 22:40:00,58.9,57.5,29.48,SSE,148,0.0,0.0,95,0.00,,---,1.29,VWS V14.01,2013-11-17 04:40:00,
2013-11-16 22:41:00,59.3,57.9,29.45,SSW,213,0.0,1.0,95,0.00,,---,1.29,VWS V14.01,2013-11-17 04:41:00,
2013-11-16 22:45:00,59.5,58.1,29.45,South,183,2.0,3.0,95,0.00,,---,1.29,VWS V14.01,2013-11-17 04:45:00,
2013-11-16 22:50:00,59.6,58.2,29.45,SSW,206,0.0,4.0,95,0.00,,---,1.29,VWS V14.01,2013-11-17 04:50:00,
2013-11-16 22:55:00,59.8,58.7,29.45,SSE,167,1.0,6.0,96,0.00,,---,1.29,VWS V14.01,2013-11-17 04:55:00,
2013-11-16 23:00:00,58.8,57.4,29.47,SSE,148,0.0,1.0,95,0.00,,---,1.29,VWS V14.01,2013-11-17 05:00:00,
2013-11-16 23:01:00,60.0,58.6,29.45,SW,223,7.0,7.0,95,0.00,,---,0.00,VWS V14.01,2013-11-17 05:01:00,
2013-11-16 23:06:00,60.2,58.8,29.44,West,267,5.0,11.0,95,0.00,,---,0.00,VWS V14.01,2013-11-17 05:06:00,
2013-11-16 23:10:00,58.8,57.4,29.46,SSE,148,0.0,2.0,95,0.00,,---,1.29,VWS V14.01,2013-11-17 05:10:00,
2013-11-16 23:11:00,60.4,59.0,29.44,SSW,200,2.0,4.0,95,0.00,,---,0.00,VWS V14.01,2013-11-17 05:11:00,
2013-11-16 23:16:00,60.6,58.9,29.44,SW,227,1.0,4.0,94,0.00,,---,0.00,VWS V14.01,2013-11-17 05:16:00,
2013-11-16 23:20:00,58.9,57.5,29.46,SSE,148,0.0,1.0,95,0.00,,---,1.29,VWS V14.01,2013-11-17 05:20:00,
2013-11-16 23:21:00,60.8,59.1,29.44,SW,231,1.0,2.0,94,0.00,,---,0.00,VWS V14.01,2013-11-17 05:21:00,
2013-11-16 23:26:00,61.0,59.0,29.44,ESE,122,4.0,7.0,93,0.00,,---,0.00,VWS V14.01,2013-11-17 05:26:00,
2013-11-16 23:30:00,59.0,57.6,29.45,SSW,213,1.0,5.0,95,0.00,,---,1.29,VWS V14.01,2013-11-17 05:30:00,
2013-11-16 23:31:00,61.2,59.2,29.44,SSW,206,0.0,5.0,93,0.00,,---,0.00,VWS V14.01,2013-11-17 05:31:00,
2013-11-16 23:36:00,61.4,59.4,29.44,South,175,2.0,9.0,93,0.00,,---,0.00,VWS V14.01,2013-11-17 05:36:00,
2013-11-16 23:40:00,59.3,57.9,29.45,SSW,213,0.0,3.0,95,0.00,,---,1.29,VWS V14.01,2013-11-17 05:40:00,
2013-11-16 23:41:00,61.6,59.3,29.43,South,191,0.0,4.0,92,0.00,,---,0.00,VWS V14.01,2013-11-17 05:41:00,
2013-11-16 23:46:00,61.9,59.5,29.43,SW,219,0.0,4.0,92,0.00,,---,0.00,VWS V14.01,2013-11-17 05:46:00,
2013-11-16 23:50:00,59.6,58.2,29.45,SW,219,4.0,4.0,95,0.00,,---,1.29,VWS V14.01,2013-11-17 05:50:00,
2013-11-16 23:51:00,62.0,59.3,29.43,WSW,244,0.0,2.0,91,0.00,,---,0.00,VWS V14.01,2013-11-17 05:51:00,
2013-11-16 23:56:00,62.1,59.5,29.43,WSW,240,0.0,5.0,91,0.00,,---,0.00,VWS V14.01,2013-11-17 05:56:00,